Regional Weather Roundup
Issued by NWS Newport/Morehead, NC

Current Version | Previous Version | Text Only | Print | Product List | Glossary On
Versions: 1 2 3 4 5 6 7 8 9 10 11 12 13 14 15 16 17 18 19 20 21 22 23 24 25 26 27 28 29 30 31 32 33 34 35 36 37 38 39 40 41 42 43 44 45 46 47 48 49 50
000
ASUS42 KMHX 290914
RWRMHX
WEATHER ROUNDUP FOR EASTERN NORTH CAROLINA
NATIONAL WEATHER SERVICE NEWPORT/MOREHEAD CITY NC
500 AM EDT SAT JUL 29 2017

NOTE: "FAIR" INDICATES FEW OR NO CLOUDS BELOW 12,000 FEET
WITH NO SIGNIFICANT WEATHER AND/OR OBSTRUCTIONS TO VISIBILITY

NCZ015>017-031-032-045>047-102-103-291000-
NORTH COAST

CITY           SKY/WX    TMP DP  RH WIND       PRES   REMARKS
EDENTON        LGT RAIN  79  75  89 CALM      29.62F
ELIZABETH CITY CLOUDY    76  75  97 S5        29.60F
KITTY HAWK     CLOUDY    73  73  99 CALM      29.60F
MANTEO         CLOUDY    73  71  94 S3        29.62F

$$

NCZ045>047-081-094-103-104-291000-
CENTRAL COAST

CITY           SKY/WX    TMP DP  RH WIND       PRES   REMARKS
FRISCO         CLOUDY    81  79  94 SW13G21   29.64

$$

NCZ095-097-098-100-101-291000-
SOUTHERN COAST

CITY           SKY/WX    TMP DP  RH WIND       PRES   REMARKS
BEAUFORT       PTCLDY    82  79  90 SW15      29.65S
CEDAR ISLAND   NOT AVBL
JACKSONVILLE   MOCLDY    79  76  90 SW5       29.64F
PINEY ISLAND   CLOUDY   N/A N/A N/A SW10      29.64S
WILMINGTON     CLOUDY    79  76  90 SW8       29.67F


$$

NCZ011>013-027>030-043-044-078>080-089-090>093-098-291000-
COASTAL PLAIN

CITY           SKY/WX    TMP DP  RH WIND       PRES   REMARKS
AHOSKIE          N/A     72  71  98 S3        29.60F
CLINTON        CLOUDY    77  76  97 SW3       29.65F
ELIZABETHTOWN  NOT AVBL
GOLDSBORO      NOT AVBL
GREENVILLE     CLOUDY    77  77 100 SW5       29.65F
HAVELOCK       CLOUDY    80  74  81 SW13      29.65S
KENANSVILLE    CLOUDY    75  73  94 SW6       29.64F FOG
KINSTON        CLOUDY    78  76  92 SW7       29.63F
NEW BERN       CLOUDY    78  76  93 SW8       29.66R
RICHLANDS      CLOUDY    77  75  93 SW7       29.65F
ROCKY MOUNT    CLOUDY    75  75 100 SW5       29.61F
WASHINGTON     LGT RAIN  76  74  94 CALM      29.62F
WHITEVILLE     MOCLDY    78  74  87 SW10G20   29.68R

$$

AMZ130-135-150-152-154-156-158-170-250-252-270-ANZ085-086-088-633-658-670-291000-
MARINE OBSERVATIONS

STATION/POSITION TIME  TEMP    WIND        PRES    WAVE   SWELL
                       AIR SEA DIR/SP/G            HT/PER HT/PER
                 (UTC) (F)     (DEG/KT/KT) (MB)    (FT/S) (FT/S)
CHESAPEAKE LIGHT NOT AVBL
64 E VA BEACH    0850   77 76  230/ 12/ 14 1003.1    3/ 4   2/ 8
DUCK             0848   76 61  180/  8/ 11 1001.8
2 E DUCK         0900      68                N/A     2/ 9
OREGON INLET     0842   75 79  140/  4/  4 1002.8
13E OREGON INLT  0848      75                N/A     3/ 5   3/ 5
HATTERAS CG      0848   80 81  220/ 10/ 15 1003.5
DIAMOND BUOY     0850   83 83  230/ 21/ 23 1003.5    4/ 4   2/11
CAPE LOOKOUT     0900   81     230/ 12/ 18 1004.0
BEAUFORT LAB     0848   82 80  240/  6/ 11 1003.3
30 SE NEW RVR IN 0808   82 84  240/ 17/ 23 1004.7
30 SE NEW RVR IN 0843      83                N/A     5/ 6
27 SE WRIGHTSVLE 0808   83 82  220/ 19/ 25 1004.6
5 SE WRIGHTSVLE  0808   83 82  230/ 14/ 19 1004.7
225 S CAPE HAT   0850   84 83  220/ 21/ 27 1009.0    7/ 7
41 SE CHARLESTON 0850   82 80  240/ 17/ 21 1006.5    4/ 6

$$




USA.gov is the U.S. government's official web portal to all federal, state and local government web resources and services.